Location: USNO
(38.9210°N, 77.0670°W)
Time: 18:56:06
(UTC-04:00)

X-37B - Visible Passes

Search period start: 19 May 2022 00:00
Search period end: 29 May 2022 00:00
Orbit: 329 x 342 km, 45.0° (Epoch: 18 May)

Date Brightness Start Highest point End Pass type
(mag) Time Alt. Az. Time Alt. Az. Time Alt. Az.
19 May 2.4 22:14:39 10° W 22:16:12 19° WSW 22:16:12 19° WSW visible
20 May 0.5 20:59:14 10° WNW 21:02:01 62° SSW 21:04:27 13° SE visible
21 May 2.2 21:20:04 10° W 21:22:18 21° SW 21:23:59 13° S visible
